Regional Weather Roundup
Issued by NWS Charleston, SC

Current Version | Previous Version | Graphics & Text | Print | Product List | Glossary On
Versions: 1 2 3 4 5 6 7 8 9 10 11 12 13 14 15 16 17 18 19 20 21 22 23 24 25 26 27 28 29 30 31 32 33 34 35 36 37 38 39 40 41 42 43 44 45 46 47 48 49 50
000 ASUS42 KCHS 262313 RWRCHS REGIONAL WEATHER ROUNDUP NATIONAL WEATHER SERVICE CHARLESTON SC 700 PM EDT THU MAY 26 2016 NOTE: "FAIR" INDICATES FEW OR NO CLOUDS BELOW 12,000 FEET WITH NO SIGNIFICANT WEATHER AND/OR OBSTRUCTIONS TO VISIBILITY. NOT ALL STATIONS ARE QUALITY CONTROLLED. USE DATA WITH CAUTION... ESPECIALLY DEWPOINT OBSERVATIONS. SCZ027-030-031-034>040-042>050-270000- ...SOUTHEAST SOUTH CAROLINA... CITY SKY/WX TMP DP RH WIND PRES REMARKS N CHARLESTON MOSUNNY 80 57 45 SE13 30.11F WATERFRONT PRK N/A 78 65 63 S8 30.10F MOUNT PLEASANT FAIR 79 63 57 S9 30.12F JOHNS ISLAND FAIR 79 64 61 SE6 30.12S PINOPOLIS N/A 88 57 35 S6 30.03F MONCKS CORNER FAIR 79 46 31 SE8 30.10F SUMMERVILLE FAIR 82 59 44 S5 30.10F BEAUFORT MCAS SUNNY 81 60 48 SE5 30.11F BEAUFORT ARPT FAIR 79 55 44 SE3 30.11S HILTON HEAD IS SUNNY 82 64 54 SE3 30.13F WALTERBORO CLEAR 82 54 36 S10 30.10F ALLENDALE FAIR 84 63 48 SE12 30.07F ...SOUTHERN MIDLANDS AND PEE DEE... CITY SKY/WX TMP DP RH WIND PRES REMARKS GEORGETOWN FAIR 77 59 53 S10 30.13F KINGSTREE CLOUDY 82 57 42 SE12 30.09F ORANGEBURG SUNNY 84 62 47 S9 30.08F BARNWELL FAIR 88 64 45 SE7 30.08F AIKEN FAIR 82 59 44 SE7 30.11S MANNING FAIR 82 63 51 SE6 30.08F COLUMBIA MOSUNNY 88 60 38 S10 30.06F SUMTER PTSUNNY 85 64 49 S10 30.06F FLORENCE SUNNY 86 63 45 SE13 30.08F MYRTLE BEACH MOSUNNY 79 63 57 S13 30.14F N MYRTLE BEACH SUNNY 77 66 68 S12 30.12F $$ GAZ063-065-086>088-099>101-113>116-118-119-134>141-150-270000- ...SOUTHEAST GEORGIA... CITY SKY/WX TMP DP RH WIND PRES REMARKS SAVANNAH ARPT SUNNY 82 53 36 SE13 30.10F HUNTER AAF SUNNY 80 61 52 S9 30.08F FORT STEWART SUNNY 82 54 37 SE9 30.07F STATESBORO SUNNY 84 64 50 SE9 30.08F SYLVANIA CLEAR 85 63 47 SE6 30.09F CLAXTON FAIR 83 63 50 E5 30.08F ...CSRA...CENTRAL AND FAR SOUTHEAST GEORGIA... CITY SKY/WX TMP DP RH WIND PRES REMARKS THOMSON PTSUNNY 82 67 61 CALM 30.12F AUGUSTA-BUSH PTSUNNY 84 65 52 S3 30.05F AUGUSTA-DANIEL MOSUNNY 87 61 41 SE6 30.07F SWAINSBORO CLOUDY 86 61 42 SE8 30.08S VIDALIA SUNNY 84 61 45 S6 30.07F EASTMAN CLOUDY 87 60 38 S7 30.08F HAZLEHURST FAIR 86 59 39 CALM 30.06S ALMA SUNNY 84 61 45 E9 30.07F WAYCROSS SUNNY 83 58 41 SE10 30.07F JESUP FAIR 77 50 38 SE7 30.09F BAXLEY FAIR 86 61 42 SE6 30.07F BRUNSWICK SUNNY 84 63 48 E12 30.11S SAINT SIMONS SUNNY 78 64 61 E9 30.11S $$ SCZ027-028-034-036>038-045-046-048>050-GAZ119-141-270000- ...LAKE AND SUPPLEMENTAL COASTAL OBSERVATIONS... STATION/POSITION TIME TEMP WIND PRES WAVE SWELL AIR SEA DIR/SP/G HT/PER HT/PER/DIR (UTC) (F) (DEG/KT/KT) (MB) (FT/S) (FT/S/D) WINYAH BAY 2145 78 160/ 10 1020.0 LAKE MURRAY 2200 90 CALM 1017.6F ACE BASIN NERRS NOT AVBL FORT PULASKI 2200 77 130/ 6/ 9 1020.2F SAPELO ISLAND 2200 81 100/ 8 1020.0S $$ ANZ835-935-AMZ111-154-330-350-352-354-370-450-454-472-270000- ...C-MAN AND BUOY OBSERVATIONS... STATION/POSITION TIME TEMP WIND PRES WAVE SWELL AIR SEA DIR/SP/G HT/PER HT/PER/DIR (UTC) (F) (DEG/KT/KT) (MB) (FT/S) (FT/S/D) BUOY 41004 2250 79 78 130/ 6/ 8 1020.0F 2/ 7 2/ 7 BUOY 41008 2250 77 79 100/ 12/ 12 1019.6F 2/ 8 2/100/ 8 FOLLY BEACH CMAN 2300 76 140/ 9/ 9 1020.1F CAPERS NEARSHORE 2208 77 78 170/ 10/ 12 1020.3F FRIPP NEARSHORE 2208 77 80 140/ 10/ 12 1019.5F STATION/POSITION TIME TEMP WIND PRES WAVE SWELL AIR SEA DIR/SP/G HT/PER HT/PER/DIR (UTC) (F) (DEG/KT/KT) (MB) (FT/S) (FT/S/D) 5E ST. MARYS GA 2201 79 N/A 2/ 8 FRYING PAN BUOY 2200 78 78 160/ 6/ 8 1020.6F BUOY 41025 2250 76 73 210/ 6/ 8 1021.2F 2/ 8 2/140/ 8 CAPE LOOKOUT NC 2300 76 180/ 11/ 12 1020.4F BUOY 41002 2250 76 78 70/ 16/ 17 1020.6F 3/ 4 2/110/ 8 BUOY 41010 2220 77 79 60/ 14/ 16 1019.0S ST AUGUSTINE FL 2300 77 81 70/ 11/ 12 1019.9F $$

USA.gov is the U.S. government's official web portal to all federal, state and local government web resources and services.